| time (UTC) | temp F | wind direction | speed knots | gust knots | rain 1hr in | rain 24hr in | rain mn in | humidity % | barometer mb |
| 20260503001520 | 75 | 283 | 0.9 | 3.5 | 0.00 | 0.00 | 0.00 | 40 | 997.0 |
| 20260503000019 | 75 | 328 | 0.9 | 3.5 | 0.00 | 0.00 | 0.00 | 39 | 997.1 |
| 20260502234526 | 76 | 225 | 1.7 | 4.3 | 0.00 | 0.00 | 0.00 | 38 | 997.1 |
| 20260502233015 | 76 | 263 | 0.0 | 4.3 | 0.00 | 0.00 | 0.00 | 38 | 997.2 |
| 20260502231512 | 76 | 212 | 0.9 | 4.3 | 0.00 | 0.00 | 0.00 | 38 | 997.3 |
| 20260502230019 | 76 | 306 | 0.0 | 3.5 | 0.00 | 0.00 | 0.00 | 37 | 997.4 |
| 20260502224509 | 76 | 325 | 1.7 | 5.2 | 0.00 | 0.00 | 0.00 | 37 | 997.4 |
| 20260502223006 | 78 | 182 | 0.9 | 3.5 | 0.00 | 0.00 | 0.00 | 37 | 997.4 |
| 20260502221505 | 75 | 273 | 0.0 | 2.6 | 0.00 | 0.00 | 0.00 | 37 | 997.6 |
| 20260502220002 | 76 | 240 | 1.7 | 5.2 | 0.00 | 0.00 | 0.00 | 36 | 997.7 |
| 20260502214500 | 77 | 178 | 1.7 | 5.2 | 0.00 | 0.00 | 0.00 | 38 | 997.8 |
| 20260502213101 | 76 | 327 | 0.9 | 4.3 | 0.00 | 0.00 | 0.00 | 36 | 997.9 |
| 20260502211559 | 76 | 243 | 1.7 | 6.1 | 0.00 | 0.00 | 0.00 | 35 | 998.2 |
| 20260502210115 | 77 | 326 | 3.5 | 9.6 | 0.00 | 0.00 | 0.00 | 33 | 998.3 |
| 20260502204558 | 76 | 168 | 1.7 | 6.1 | 0.00 | 0.00 | 0.00 | 32 | 998.7 |
| 20260502203056 | 75 | 15 | 2.6 | 7.8 | 0.00 | 0.00 | 0.00 | 34 | 998.7 |
| 20260502201556 | 76 | 307 | 0.9 | 4.3 | 0.00 | 0.00 | 0.00 | 32 | 998.8 |
| 20260502200054 | 75 | 22 | 0.9 | 7.0 | 0.00 | 0.00 | 0.00 | 32 | 999.2 |
| 20260502194554 | 76 | 32 | 0.9 | 4.3 | 0.00 | 0.00 | 0.00 | 34 | 999.2 |
| 20260502193057 | 75 | 230 | 1.7 | 5.2 | 0.00 | 0.00 | 0.00 | 34 | 999.4 |
| 20260502191558 | 75 | 102 | 1.7 | 4.3 | 0.00 | 0.00 | 0.00 | 34 | 999.5 |
| 20260502190106 | 75 | 7 | 1.7 | 5.2 | 0.00 | 0.00 | 0.00 | 34 | 999.7 |
| 20260502184558 | 74 | 264 | 1.7 | 5.2 | 0.00 | 0.00 | 0.00 | 33 | 999.8 |
| 20260502183103 | 74 | 16 | 1.7 | 4.3 | 0.00 | 0.00 | 0.00 | 34 | 1000.2 |
| 20260502181547 | 73 | 264 | 0.9 | 3.5 | 0.00 | 0.00 | 0.00 | 34 | 1000.4 |
| 20260502163028 | 70 | 63 | 0.9 | 3.5 | 0.00 | 0.00 | 0.00 | 37 | 1001.3 |
| 20260502161526 | 69 | 259 | 0.9 | 3.5 | 0.00 | 0.00 | 0.00 | 38 | 1001.3 |
| 20260502151514 | 66 | 52 | 0.9 | 3.5 | 0.00 | 0.00 | 0.00 | 43 | 1001.0 |
| 20260502123037 | 52 | 307 | 0.0 | 1.7 | 0.00 | 0.00 | 0.00 | 85 | 999.7 |
| 20260502121544 | 52 | 308 | 0.0 | 1.7 | 0.00 | 0.00 | 0.00 | 85 | 999.5 |
| 20260502114527 | 52 | 308 | 0.0 | 0.0 | 0.00 | 0.00 | 0.00 | 84 | 999.1 |
| 20260502113024 | 52 | 308 | 0.0 | 0.0 | 0.00 | 0.00 | 0.00 | 84 | 998.8 |
| 20260502111527 | 52 | 308 | 0.0 | 0.9 | 0.00 | 0.00 | 0.00 | 84 | 998.5 |
| 20260502110020 | 52 | 308 | 0.0 | 0.9 | 0.00 | 0.00 | 0.00 | 84 | 998.4 |
| 20260502104518 | 53 | 302 | 0.0 | 2.6 | 0.00 | 0.00 | 0.00 | 84 | 998.3 |
| 20260502103017 | 53 | 298 | 0.0 | 1.7 | 0.00 | 0.00 | 0.00 | 83 | 998.3 |
| 20260502101517 | 53 | 283 | 0.9 | 2.6 | 0.00 | 0.00 | 0.00 | 82 | 998.1 |
| 20260502091509 | 54 | 288 | 0.9 | 3.5 | 0.00 | 0.00 | 0.00 | 82 | 997.8 |
| 20260502070117 | 53 | 259 | 0.0 | 0.0 | 0.00 | 0.00 | 0.00 | 84 | 998.0 |
| 20260502064557 | 54 | 259 | 0.0 | 0.0 | 0.00 | 0.00 | 0.00 | 84 | 998.1 |
| 20260502063057 | 54 | 259 | 0.0 | 0.0 | 0.00 | 0.00 | 0.00 | 83 | 998.1 |
| 20260502061554 | 55 | 259 | 0.0 | 0.9 | 0.00 | 0.00 | 0.00 | 81 | 998.1 |
| 20260502060053 | 56 | 259 | 0.0 | 0.9 | 0.00 | 0.00 | 0.00 | 81 | 998.0 |
| 20260502054553 | 56 | 238 | 0.0 | 0.9 | 0.00 | 0.00 | 0.00 | 82 | 997.9 |
| 20260502053102 | 55 | 92 | 0.0 | 0.0 | 0.00 | 0.00 | 0.00 | 84 | 997.8 |
| 20260502051603 | 55 | 92 | 0.0 | 0.0 | 0.00 | 0.00 | 0.00 | 83 | 998.1 |
| 20260502050046 | 56 | 92 | 0.0 | 0.0 | 0.00 | 0.00 | 0.00 | 82 | 998.0 |
| 20260502044545 | 56 | 92 | 0.0 | 0.0 | 0.00 | 0.00 | 0.00 | 83 | 998.0 |
| 20260502043043 | 56 | 92 | 0.0 | 0.0 | 0.00 | 0.00 | 0.00 | 82 | 997.9 |
| 20260502041601 | 57 | 92 | 0.0 | 0.0 | 0.00 | 0.00 | 0.00 | 81 | 997.8 |
| 20260502040042 | 57 | 92 | 0.0 | 0.0 | 0.00 | 0.00 | 0.00 | 81 | 997.9 |
| 20260502034535 | 58 | 92 | 0.0 | 0.0 | 0.00 | 0.00 | 0.00 | 81 | 997.6 |
| 20260502033045 | 58 | 92 | 0.0 | 0.0 | 0.00 | 0.00 | 0.00 | 79 | 997.6 |
| 20260502031533 | 59 | 92 | 0.0 | 0.0 | 0.00 | 0.00 | 0.00 | 78 | 997.5 |
| 20260502030032 | 60 | 92 | 0.0 | 0.0 | 0.00 | 0.00 | 0.00 | 77 | 997.4 |
| 20260502024529 | 60 | 92 | 0.0 | 0.0 | 0.00 | 0.00 | 0.00 | 71 | 997.2 |
| 20260502023029 | 62 | 92 | 0.0 | 0.0 | 0.00 | 0.00 | 0.00 | 65 | 997.1 |
| 20260502021527 | 62 | 92 | 0.0 | 0.9 | 0.00 | 0.00 | 0.00 | 63 | 997.0 |
| 20260502020025 | 62 | 92 | 0.0 | 2.6 | 0.00 | 0.00 | 0.00 | 62 | 996.5 |
| 20260502014528 | 62 | 277 | 0.0 | 0.9 | 0.00 | 0.00 | 0.00 | 63 | 996.2 |
| 20260502013023 | 63 | 277 | 0.0 | 0.9 | 0.00 | 0.00 | 0.00 | 62 | 995.9 |
| 20260502011523 | 63 | 100 | 0.0 | 0.9 | 0.00 | 0.00 | 0.00 | 62 | 995.4 |
| 20260502010024 | 64 | 100 | 0.0 | 0.9 | 0.00 | 0.00 | 0.00 | 60 | 995.3 |
| 20260502004522 | 64 | 100 | 0.0 | 0.9 | 0.00 | 0.00 | 0.00 | 60 | 995.2 |
| 20260502003021 | 64 | 100 | 0.0 | 1.7 | 0.00 | 0.00 | 0.00 | 58 | 995.0 |